VTK601 UNBB-UZTT

Flight info

Callsign VTK601
Flight time 2h 36m
Altitude 36000
Route TISMI2F TISMI G121 ELSUT L143 SOMIP N102 BLH M34 TENRO N102 SMK P178 DOSOR DOSOR2T
Aircraft A321/M-SDE3FGHIRWY/LB1

Departure

Time 2026-04-15 13:26
Airport Barnaul Gherman Titov International Airport (UNBB)

Arrival

Time 2026-04-15 16:03
Airport Tashkent International Airport (UZTT)
Time Latitude Longitude Altitude Speed Heading
2026-04-15 13:23 53.36289 83.55029 833 ft 0 kts 248°
2026-04-15 13:23 53.36288 83.55026 833 ft 2 kts 248°
2026-04-15 13:23 53.36294 83.54948 833 ft 12 kts 304°
2026-04-15 13:24 53.36374 83.54934 833 ft 14 kts 47°
2026-04-15 13:24 53.36419 83.55088 833 ft 16 kts 66°
2026-04-15 13:24 53.36467 83.55287 833 ft 21 kts 67°
2026-04-15 13:24 53.36527 83.55521 830 ft 23 kts 68°
2026-04-15 13:25 53.36590 83.55776 833 ft 25 kts 68°
2026-04-15 13:25 53.36656 83.55994 830 ft 17 kts 37°
2026-04-15 13:25 53.36766 83.55964 830 ft 16 kts 333°
2026-04-15 13:25 53.36779 83.55811 830 ft 15 kts 247°
2026-04-15 13:26 53.36714 83.55549 832 ft 51 kts 248°
2026-04-15 13:26 53.36486 83.54629 830 ft 118 kts 247°
2026-04-15 13:26 53.36097 83.53096 949 ft 159 kts 247°
2026-04-15 13:26 53.35664 83.51397 1697 ft 158 kts 249°
2026-04-15 13:27 53.35214 83.49725 2463 ft 158 kts 249°
2026-04-15 13:27 53.34741 83.48006 2893 ft 171 kts 249°
2026-04-15 13:27 53.34211 83.46080 3112 ft 194 kts 248°
2026-04-15 13:27 53.33615 83.43919 3329 ft 216 kts 248°
2026-04-15 13:28 53.32950 83.41482 3564 ft 242 kts 248°
2026-04-15 13:28 53.32234 83.38900 4291 ft 245 kts 249°
2026-04-15 13:28 53.31507 83.36293 5092 ft 249 kts 248°
2026-04-15 13:28 53.30763 83.33645 6002 ft 247 kts 247°
2026-04-15 13:29 53.30054 83.31105 6732 ft 245 kts 247°
2026-04-15 13:29 53.29320 83.28488 7396 ft 252 kts 248°
2026-04-15 13:29 53.28568 83.25813 8182 ft 256 kts 247°
2026-04-15 13:29 53.27818 83.23112 8962 ft 258 kts 248°
2026-04-15 13:30 53.27057 83.20371 9761 ft 261 kts 247°
2026-04-15 13:30 53.26279 83.17575 10282 ft 275 kts 247°
2026-04-15 13:30 53.25441 83.14565 10483 ft 297 kts 247°
2026-04-15 13:30 53.24534 83.11312 10633 ft 320 kts 247°
2026-04-15 13:31 53.23563 83.07844 10866 ft 338 kts 247°
2026-04-15 13:31 53.22556 83.04263 11457 ft 343 kts 247°
2026-04-15 13:31 53.21531 83.00647 12150 ft 347 kts 247°
2026-04-15 13:31 53.20491 82.96989 12863 ft 350 kts 247°
2026-04-15 13:32 53.19446 82.93300 13578 ft 353 kts 248°
2026-04-15 13:32 53.18344 82.89624 14212 ft 358 kts 242°
2026-04-15 13:32 53.16845 82.86260 14864 ft 365 kts 231°
2026-04-15 13:32 53.14929 82.83432 15504 ft 373 kts 220°
2026-04-15 13:33 53.12741 82.81032 16132 ft 378 kts 218°
2026-04-15 13:33 53.10527 82.78638 16769 ft 381 kts 218°
2026-04-15 13:33 53.08299 82.76223 17421 ft 383 kts 219°
2026-04-15 13:33 53.06058 82.73792 18048 ft 386 kts 219°
2026-04-15 13:34 53.03800 82.71343 18597 ft 389 kts 219°
2026-04-15 13:34 53.01530 82.68881 19090 ft 390 kts 220°
2026-04-15 13:34 52.99260 82.66426 19723 ft 389 kts 220°
2026-04-15 13:34 52.96988 82.63974 20266 ft 391 kts 221°
2026-04-15 13:35 52.94707 82.61512 20781 ft 392 kts 221°
2026-04-15 13:35 52.92415 82.59035 21276 ft 395 kts 221°
2026-04-15 13:35 52.90141 82.56577 21752 ft 397 kts 221°
2026-04-15 13:35 52.87820 82.54076 22220 ft 399 kts 221°
2026-04-15 13:36 52.85483 82.51567 22709 ft 401 kts 221°
2026-04-15 13:36 52.83134 82.49054 23161 ft 404 kts 221°
2026-04-15 13:36 52.80768 82.46525 23580 ft 406 kts 221°
2026-04-15 13:36 52.78388 82.43984 23937 ft 409 kts 222°
2026-04-15 13:37 52.75990 82.41428 24214 ft 412 kts 222°
2026-04-15 13:37 52.73582 82.38871 24653 ft 411 kts 223°
2026-04-15 13:37 52.71175 82.36319 25032 ft 412 kts 223°
2026-04-15 13:37 52.68764 82.33752 25379 ft 414 kts 223°
2026-04-15 13:38 52.66340 82.31166 25724 ft 416 kts 223°
2026-04-15 13:38 52.63897 82.28567 26065 ft 419 kts 223°
2026-04-15 13:38 52.61440 82.25960 26406 ft 421 kts 223°
2026-04-15 13:38 52.58967 82.23346 26742 ft 424 kts 223°
2026-04-15 13:39 52.56479 82.20724 27073 ft 426 kts 223°
2026-04-15 13:39 52.53978 82.18094 27455 ft 427 kts 223°
2026-04-15 13:39 52.51477 82.15473 27906 ft 426 kts 223°
2026-04-15 13:39 52.48986 82.12858 28297 ft 424 kts 224°
2026-04-15 13:40 52.46506 82.10256 28810 ft 421 kts 224°
2026-04-15 13:40 52.44038 82.07667 29287 ft 420 kts 224°
2026-04-15 13:40 52.41578 82.05090 29731 ft 419 kts 224°
2026-04-15 13:40 52.39121 82.02524 30115 ft 418 kts 224°
2026-04-15 13:41 52.36666 81.99961 30443 ft 418 kts 224°
2026-04-15 13:41 52.34212 81.97401 30761 ft 419 kts 224°
2026-04-15 13:41 52.31785 81.94873 31086 ft 419 kts 224°
2026-04-15 13:41 52.29330 81.92321 31392 ft 419 kts 224°
2026-04-15 13:42 52.26839 81.89735 31714 ft 419 kts 224°
2026-04-15 13:42 52.24383 81.87182 31984 ft 419 kts 224°
2026-04-15 13:42 52.21927 81.84629 32347 ft 418 kts 224°
2026-04-15 13:42 52.19511 81.82125 32716 ft 416 kts 224°
2026-04-15 13:43 52.17067 81.79598 33050 ft 416 kts 224°
2026-04-15 13:43 52.14592 81.77043 33369 ft 416 kts 224°
2026-04-15 13:43 52.12179 81.74555 33679 ft 416 kts 224°
2026-04-15 13:43 52.09734 81.72040 33999 ft 416 kts 224°
2026-04-15 13:44 52.07290 81.69531 34247 ft 416 kts 223°
2026-04-15 13:44 52.04841 81.67018 34475 ft 417 kts 223°
2026-04-15 13:44 52.02386 81.64501 34656 ft 417 kts 223°
2026-04-15 13:44 51.99930 81.61989 34901 ft 417 kts 223°
2026-04-15 13:45 51.97469 81.59479 35076 ft 417 kts 223°
2026-04-15 13:45 51.95016 81.56976 35347 ft 416 kts 223°
2026-04-15 13:45 51.92564 81.54474 35578 ft 417 kts 223°
2026-04-15 13:47 51.75235 81.36888 35988 ft 422 kts 223°
2026-04-15 13:47 51.70267 81.31873 35982 ft 420 kts 223°
2026-04-15 13:48 51.65304 81.26882 35958 ft 420 kts 223°
2026-04-15 13:48 51.60339 81.21900 35979 ft 421 kts 222°
2026-04-15 13:49 51.55139 81.17338 35990 ft 429 kts 217°
2026-04-15 13:49 51.49778 81.13084 35997 ft 430 kts 217°
2026-04-15 13:50 51.44418 81.08826 35974 ft 430 kts 217°
2026-04-15 13:50 51.39956 81.05305 35991 ft 430 kts 217°
2026-04-15 13:51 51.34584 81.01072 35995 ft 430 kts 217°
2026-04-15 13:51 51.29220 80.96866 35998 ft 430 kts 217°
2026-04-15 13:52 51.22981 80.91970 35963 ft 430 kts 217°
2026-04-15 13:52 51.18500 80.88428 35971 ft 429 kts 217°
2026-04-15 13:53 51.13169 80.84172 35972 ft 429 kts 217°
2026-04-15 13:53 51.07828 80.79918 35996 ft 429 kts 217°
2026-04-15 13:54 51.02486 80.75677 35998 ft 429 kts 217°
2026-04-15 13:54 50.97135 80.71462 35966 ft 430 kts 217°
2026-04-15 13:55 50.91766 80.67252 35989 ft 430 kts 217°
2026-04-15 13:55 50.86400 80.63049 36002 ft 431 kts 217°
2026-04-15 13:56 50.81028 80.58838 36004 ft 431 kts 217°
2026-04-15 13:56 50.75689 80.54669 35985 ft 430 kts 216°
2026-04-15 13:57 50.70315 80.50496 35952 ft 430 kts 216°
2026-04-15 13:57 50.64948 80.46329 35973 ft 430 kts 216°
2026-04-15 13:58 50.59579 80.42164 35990 ft 430 kts 216°
2026-04-15 13:58 50.54204 80.38010 35991 ft 430 kts 216°
2026-04-15 13:59 50.48831 80.33871 35993 ft 430 kts 216°
2026-04-15 13:59 50.43452 80.29740 35978 ft 430 kts 216°
2026-04-15 14:00 50.38076 80.25624 35983 ft 429 kts 216°
2026-04-15 14:00 50.35544 80.23261 35983 ft 418 kts 225°
2026-04-15 14:00 50.33362 80.20371 35986 ft 407 kts 234°
2026-04-15 14:01 50.27606 80.10700 35992 ft 405 kts 235°
2026-04-15 14:02 50.23751 80.04280 35988 ft 405 kts 235°
2026-04-15 14:02 50.19898 79.97872 35954 ft 405 kts 234°
2026-04-15 14:03 50.16035 79.91466 35975 ft 406 kts 234°
2026-04-15 14:03 50.12167 79.85059 35975 ft 406 kts 234°
2026-04-15 14:04 50.08300 79.78658 35986 ft 406 kts 234°
2026-04-15 14:04 50.04423 79.72267 35999 ft 406 kts 234°
2026-04-15 14:05 50.00541 79.65875 36009 ft 406 kts 234°
2026-04-15 14:05 49.96653 79.59495 36012 ft 407 kts 234°
2026-04-15 14:06 49.92754 79.53131 36000 ft 407 kts 234°
2026-04-15 14:06 49.88877 79.46823 35979 ft 406 kts 233°
2026-04-15 14:07 49.84977 79.40478 35999 ft 407 kts 233°
2026-04-15 14:07 49.81072 79.34125 36013 ft 407 kts 233°
2026-04-15 14:08 49.77170 79.27780 36026 ft 407 kts 233°
2026-04-15 14:08 49.73252 79.21440 36026 ft 408 kts 233°
2026-04-15 14:09 49.69324 79.15111 36027 ft 408 kts 233°
2026-04-15 14:09 49.65391 79.08798 36009 ft 408 kts 233°
2026-04-15 14:10 49.61461 79.02489 36023 ft 408 kts 233°
2026-04-15 14:10 49.57529 78.96175 36037 ft 408 kts 233°
2026-04-15 14:11 49.53612 78.89926 36040 ft 408 kts 233°
2026-04-15 14:11 49.49670 78.83655 36038 ft 408 kts 233°
2026-04-15 14:12 49.45725 78.77381 36046 ft 408 kts 233°
2026-04-15 14:12 49.41779 78.71111 36033 ft 408 kts 233°
2026-04-15 14:13 49.37818 78.64853 36022 ft 409 kts 233°
2026-04-15 14:13 49.33855 78.58599 36033 ft 409 kts 233°
2026-04-15 14:14 49.29886 78.52343 36032 ft 409 kts 233°
2026-04-15 14:14 49.25913 78.46106 36035 ft 409 kts 232°
2026-04-15 14:15 49.21927 78.39874 36017 ft 410 kts 232°
2026-04-15 14:15 49.17940 78.33659 36029 ft 409 kts 232°
2026-04-15 14:16 49.13988 78.27486 36019 ft 409 kts 232°
2026-04-15 14:16 49.10011 78.21288 36027 ft 409 kts 232°
2026-04-15 14:17 49.06028 78.15103 36020 ft 408 kts 232°
2026-04-15 14:17 49.02031 78.08935 36021 ft 409 kts 232°
2026-04-15 14:18 48.98032 78.02784 35999 ft 409 kts 232°
2026-04-15 14:18 48.94041 77.96623 36010 ft 409 kts 232°
2026-04-15 14:19 48.90038 77.90476 36019 ft 409 kts 232°
2026-04-15 14:19 48.86032 77.84318 35999 ft 409 kts 232°
2026-04-15 14:20 48.82027 77.78184 35990 ft 409 kts 231°
2026-04-15 14:20 48.78011 77.72072 35990 ft 409 kts 231°
2026-04-15 14:21 48.73990 77.65958 35973 ft 409 kts 231°
2026-04-15 14:21 48.69972 77.59860 35980 ft 409 kts 231°
2026-04-15 14:22 48.65982 77.53804 35967 ft 408 kts 231°
2026-04-15 14:22 48.61964 77.47733 35966 ft 408 kts 231°
2026-04-15 14:23 48.57943 77.41684 35959 ft 408 kts 231°
2026-04-15 14:23 48.53915 77.35639 35939 ft 408 kts 231°
2026-04-15 14:24 48.49886 77.29612 35946 ft 408 kts 230°
2026-04-15 14:24 48.45865 77.23588 35945 ft 408 kts 230°
2026-04-15 14:25 48.41840 77.17563 35947 ft 408 kts 230°
2026-04-15 14:25 48.37806 77.11550 35948 ft 408 kts 230°
2026-04-15 14:26 48.33768 77.05555 35922 ft 408 kts 230°
2026-04-15 14:26 48.29723 76.99565 35922 ft 408 kts 230°
2026-04-15 14:27 48.25705 76.93628 35933 ft 408 kts 230°
2026-04-15 14:27 48.21630 76.87608 35933 ft 408 kts 230°
2026-04-15 14:28 48.17575 76.81641 35930 ft 408 kts 230°
2026-04-15 14:28 48.13548 76.75740 35933 ft 408 kts 230°
2026-04-15 14:29 48.09490 76.69811 35918 ft 408 kts 230°
2026-04-15 14:29 48.05438 76.63886 35916 ft 408 kts 229°
2026-04-15 14:30 48.01379 76.57964 35928 ft 407 kts 229°
2026-04-15 14:30 47.97315 76.52057 35932 ft 407 kts 229°
2026-04-15 14:31 47.93246 76.46155 35936 ft 408 kts 229°
2026-04-15 14:31 47.89177 76.40258 35931 ft 408 kts 229°
2026-04-15 14:32 47.85133 76.34412 35921 ft 408 kts 229°
2026-04-15 14:32 47.81034 76.28494 35911 ft 407 kts 229°
2026-04-15 14:33 47.76993 76.22683 35927 ft 407 kts 229°
2026-04-15 14:33 47.72921 76.16840 35934 ft 407 kts 229°
2026-04-15 14:34 47.68853 76.11017 35932 ft 406 kts 229°
2026-04-15 14:34 47.64783 76.05214 35933 ft 406 kts 229°
2026-04-15 14:35 47.60714 75.99419 35933 ft 406 kts 228°
2026-04-15 14:35 47.56643 75.93626 35922 ft 405 kts 228°
2026-04-15 14:36 47.52572 75.87850 35928 ft 405 kts 228°
2026-04-15 14:36 47.48498 75.82087 35937 ft 405 kts 228°
2026-04-15 14:37 47.44421 75.76331 35939 ft 405 kts 228°
2026-04-15 14:37 47.40371 75.70623 35927 ft 405 kts 227°
2026-04-15 14:38 47.36295 75.64887 35929 ft 405 kts 227°
2026-04-15 14:38 47.32211 75.59159 35935 ft 405 kts 227°
2026-04-15 14:39 47.28119 75.53444 35921 ft 405 kts 227°
2026-04-15 14:39 47.24037 75.47738 35928 ft 405 kts 227°
2026-04-15 14:40 47.19951 75.42044 35933 ft 405 kts 227°
2026-04-15 14:40 47.15859 75.36349 35930 ft 405 kts 227°
2026-04-15 14:41 47.11787 75.30704 35934 ft 405 kts 227°
2026-04-15 14:41 47.07677 75.25019 35947 ft 406 kts 227°
2026-04-15 14:42 47.03568 75.19341 35946 ft 406 kts 227°
2026-04-15 14:42 46.99450 75.13669 35959 ft 407 kts 227°
2026-04-15 14:43 46.96018 75.08964 35956 ft 407 kts 227°
2026-04-15 14:43 46.91887 75.03306 35959 ft 406 kts 227°
2026-04-15 14:44 46.87319 74.98378 35950 ft 416 kts 211°
2026-04-15 14:44 46.81766 74.95682 35953 ft 424 kts 201°
2026-04-15 14:45 46.76088 74.93376 35938 ft 423 kts 201°
2026-04-15 14:45 46.70417 74.91044 35939 ft 423 kts 201°
2026-04-15 14:46 46.64751 74.88710 35945 ft 423 kts 201°
2026-04-15 14:46 46.59117 74.86413 35950 ft 424 kts 201°
2026-04-15 14:47 46.53430 74.84106 35943 ft 424 kts 201°
2026-04-15 14:47 46.47753 74.81798 35947 ft 423 kts 201°
2026-04-15 14:48 46.42078 74.79500 35932 ft 423 kts 201°
2026-04-15 14:48 46.36409 74.77209 35915 ft 423 kts 201°
2026-04-15 14:49 46.30750 74.74927 35931 ft 422 kts 201°
2026-04-15 14:49 46.25092 74.72648 35939 ft 422 kts 201°
2026-04-15 14:50 46.19432 74.70370 35941 ft 422 kts 201°
2026-04-15 14:50 46.13813 74.68110 35935 ft 422 kts 201°
2026-04-15 14:51 46.08122 74.65829 35939 ft 422 kts 201°
2026-04-15 14:51 46.02501 74.63592 35937 ft 421 kts 201°
2026-04-15 14:52 45.96854 74.61346 35930 ft 421 kts 201°
2026-04-15 14:52 45.91201 74.59093 35917 ft 421 kts 201°
2026-04-15 14:53 45.85547 74.56855 35924 ft 421 kts 201°
2026-04-15 14:53 45.79890 74.54632 35932 ft 421 kts 201°
2026-04-15 14:54 45.74279 74.52425 35928 ft 421 kts 201°
2026-04-15 14:54 45.68625 74.50201 35917 ft 421 kts 201°
2026-04-15 14:55 45.62974 74.47994 35931 ft 421 kts 201°
2026-04-15 14:55 45.57308 74.45781 35938 ft 422 kts 200°
2026-04-15 14:56 45.51646 74.43572 35940 ft 421 kts 201°
2026-04-15 14:56 45.45998 74.41370 35931 ft 421 kts 201°
2026-04-15 14:57 45.40344 74.39176 35944 ft 422 kts 201°
2026-04-15 14:57 45.34675 74.36975 35946 ft 423 kts 201°
2026-04-15 14:58 45.28999 74.34780 35956 ft 423 kts 200°
2026-04-15 14:58 45.23327 74.32590 35946 ft 423 kts 201°
2026-04-15 14:59 45.17640 74.30400 35954 ft 424 kts 200°
2026-04-15 14:59 45.11952 74.28216 35957 ft 424 kts 200°
2026-04-15 15:00 45.06307 74.26041 35949 ft 423 kts 201°
2026-04-15 15:00 45.01069 74.22640 35957 ft 410 kts 220°
2026-04-15 15:01 44.97130 74.17013 35974 ft 401 kts 238°
2026-04-15 15:01 44.94288 74.10249 35966 ft 401 kts 241°
2026-04-15 15:02 44.91472 74.03468 35971 ft 401 kts 241°
2026-04-15 15:02 44.88638 73.96699 35968 ft 401 kts 241°
2026-04-15 15:03 44.85804 73.89941 35979 ft 400 kts 241°
2026-04-15 15:03 44.82978 73.83176 35981 ft 401 kts 241°
2026-04-15 15:04 44.80141 73.76412 35975 ft 401 kts 240°
2026-04-15 15:04 44.77312 73.69705 35982 ft 401 kts 240°
2026-04-15 15:05 44.74465 73.62947 35998 ft 402 kts 240°
2026-04-15 15:05 44.71610 73.56193 36000 ft 402 kts 240°
2026-04-15 15:06 44.67542 73.46636 35992 ft 401 kts 240°
2026-04-15 15:06 44.64673 73.39910 35992 ft 402 kts 240°
2026-04-15 15:07 44.61808 73.33181 35994 ft 402 kts 240°
2026-04-15 15:07 44.58935 73.26453 35998 ft 402 kts 240°
2026-04-15 15:08 44.56054 73.19737 36011 ft 402 kts 240°
2026-04-15 15:08 44.53170 73.13039 36014 ft 401 kts 239°
2026-04-15 15:09 44.50285 73.06357 36002 ft 401 kts 239°
2026-04-15 15:09 44.47405 72.99676 36011 ft 400 kts 239°
2026-04-15 15:10 44.44528 72.93015 36006 ft 400 kts 239°
2026-04-15 15:10 44.41641 72.86374 36016 ft 399 kts 239°
2026-04-15 15:11 44.38752 72.79744 36018 ft 399 kts 239°
2026-04-15 15:11 44.35870 72.73127 36018 ft 398 kts 239°
2026-04-15 15:12 44.32985 72.66522 36015 ft 398 kts 239°
2026-04-15 15:12 44.30097 72.59937 36020 ft 398 kts 239°
2026-04-15 15:13 44.27207 72.53358 36014 ft 397 kts 238°
2026-04-15 15:13 44.24320 72.46790 36019 ft 397 kts 238°
2026-04-15 15:14 44.21449 72.40278 36022 ft 397 kts 238°
2026-04-15 15:14 44.18553 72.33730 36014 ft 396 kts 238°
2026-04-15 15:15 44.15658 72.27192 36021 ft 397 kts 238°
2026-04-15 15:15 44.12756 72.20661 36036 ft 397 kts 238°
2026-04-15 15:16 44.09856 72.14133 36036 ft 396 kts 238°
2026-04-15 15:16 44.06955 72.07610 36035 ft 396 kts 238°
2026-04-15 15:17 44.04047 72.01101 36029 ft 396 kts 237°
2026-04-15 15:17 44.01136 71.94595 36036 ft 397 kts 237°
2026-04-15 15:18 43.98215 71.88082 36033 ft 397 kts 237°
2026-04-15 15:18 43.95285 71.81579 36032 ft 398 kts 237°
2026-04-15 15:19 43.92348 71.75072 36036 ft 398 kts 237°
2026-04-15 15:19 43.89408 71.68565 36029 ft 398 kts 237°
2026-04-15 15:20 43.86482 71.62108 36044 ft 398 kts 237°
2026-04-15 15:20 43.83531 71.55617 36046 ft 398 kts 237°
2026-04-15 15:21 43.80579 71.49134 36052 ft 398 kts 237°
2026-04-15 15:21 43.77616 71.42651 36055 ft 399 kts 237°
2026-04-15 15:22 43.74653 71.36160 36081 ft 399 kts 236°
2026-04-15 15:22 43.71689 71.29682 36072 ft 398 kts 236°
2026-04-15 15:23 43.68725 71.23220 36071 ft 398 kts 236°
2026-04-15 15:23 43.65786 71.16818 36068 ft 397 kts 236°
2026-04-15 15:24 43.62820 71.10381 36084 ft 397 kts 236°
2026-04-15 15:24 43.59846 71.03950 36077 ft 397 kts 236°
2026-04-15 15:25 43.56875 70.97535 36069 ft 397 kts 236°
2026-04-15 15:25 43.53891 70.91129 36081 ft 397 kts 236°
2026-04-15 15:26 43.50629 70.85025 36084 ft 396 kts 225°
2026-04-15 15:26 43.46532 70.80038 36093 ft 396 kts 221°
2026-04-15 15:27 43.42378 70.75064 36085 ft 395 kts 221°
2026-04-15 15:27 43.38230 70.70094 36084 ft 395 kts 221°
2026-04-15 15:28 43.34082 70.65138 36078 ft 395 kts 221°
2026-04-15 15:28 43.29938 70.60193 36064 ft 395 kts 221°
2026-04-15 15:29 43.25787 70.55248 36079 ft 395 kts 221°
2026-04-15 15:29 43.21630 70.50313 36093 ft 395 kts 221°
2026-04-15 15:30 43.17471 70.45384 36096 ft 395 kts 221°
2026-04-15 15:30 43.13320 70.40468 36103 ft 395 kts 221°
2026-04-15 15:31 43.09157 70.35558 36085 ft 395 kts 221°
2026-04-15 15:31 43.05024 70.30696 36107 ft 395 kts 221°
2026-04-15 15:32 43.00865 70.25795 36109 ft 395 kts 221°
2026-04-15 15:32 42.96705 70.20897 36113 ft 395 kts 221°
2026-04-15 15:33 42.92536 70.16001 36097 ft 396 kts 220°
2026-04-15 15:33 42.88313 70.11074 36135 ft 400 kts 219°
2026-04-15 15:34 42.84066 70.06125 36109 ft 401 kts 221°
2026-04-15 15:34 42.79833 70.01190 36130 ft 400 kts 221°
2026-04-15 15:35 42.75618 69.96278 36137 ft 397 kts 220°
2026-04-15 15:35 42.71425 69.91402 36126 ft 396 kts 220°
2026-04-15 15:36 42.67258 69.86570 36124 ft 396 kts 220°
2026-04-15 15:36 42.63099 69.81668 36134 ft 396 kts 225°
2026-04-15 15:37 42.59336 69.76212 36108 ft 396 kts 226°
2026-04-15 15:37 42.55582 69.70757 36112 ft 395 kts 226°
2026-04-15 15:38 42.51830 69.65307 36112 ft 395 kts 226°
2026-04-15 15:38 42.48687 69.60744 36110 ft 395 kts 226°
2026-04-15 15:39 42.44934 69.55313 36112 ft 395 kts 226°
2026-04-15 15:39 42.41202 69.49930 36107 ft 395 kts 226°
2026-04-15 15:40 42.37183 69.44830 36105 ft 394 kts 214°
2026-04-15 15:40 42.32273 69.41648 36083 ft 396 kts 203°
2026-04-15 15:41 42.27108 69.39012 36085 ft 397 kts 203°
2026-04-15 15:41 42.21942 69.36363 36091 ft 397 kts 203°
2026-04-15 15:42 42.16773 69.33725 36089 ft 397 kts 203°
2026-04-15 15:42 42.11601 69.31098 36078 ft 397 kts 203°
2026-04-15 15:43 42.06430 69.28469 36088 ft 397 kts 203°
2026-04-15 15:43 42.01442 69.25336 36085 ft 395 kts 210°
2026-04-15 15:44 41.96669 69.21674 36085 ft 394 kts 217°
2026-04-15 15:44 41.92852 69.16428 36102 ft 396 kts 234°
2026-04-15 15:45 41.89767 69.10351 36099 ft 397 kts 234°
2026-04-15 15:45 41.86651 69.04244 36082 ft 397 kts 234°
2026-04-15 15:46 41.83514 68.98147 36081 ft 397 kts 233°
2026-04-15 15:46 41.80377 68.92065 36090 ft 397 kts 234°
2026-04-15 15:47 41.78808 68.89021 35980 ft 398 kts 234°
2026-04-15 15:47 41.77226 68.85949 35241 ft 402 kts 234°
2026-04-15 15:47 41.75638 68.82862 34543 ft 404 kts 234°
2026-04-15 15:47 41.74038 68.79759 33758 ft 406 kts 233°
2026-04-15 15:48 41.72427 68.76645 32982 ft 407 kts 233°
2026-04-15 15:48 41.70815 68.73535 32227 ft 407 kts 233°
2026-04-15 15:48 41.69197 68.70418 31422 ft 408 kts 234°
2026-04-15 15:48 41.67571 68.67290 30565 ft 411 kts 233°
2026-04-15 15:49 41.65714 68.64396 29630 ft 412 kts 221°
2026-04-15 15:49 41.63295 68.62360 28712 ft 415 kts 205°
2026-04-15 15:49 41.60481 68.61410 27700 ft 424 kts 189°
2026-04-15 15:49 41.57494 68.61729 26497 ft 443 kts 171°
2026-04-15 15:50 41.54624 68.63438 25329 ft 463 kts 154°
2026-04-15 15:50 41.51963 68.65788 24137 ft 451 kts 153°
2026-04-15 15:50 41.49416 68.68084 22936 ft 434 kts 153°
2026-04-15 15:50 41.46958 68.70301 21755 ft 423 kts 153°
2026-04-15 15:51 41.44509 68.72482 20835 ft 424 kts 153°
2026-04-15 15:51 41.42058 68.74646 20062 ft 421 kts 153°
2026-04-15 15:51 41.39616 68.76792 19285 ft 419 kts 153°
2026-04-15 15:51 41.37187 68.78920 18507 ft 417 kts 153°
2026-04-15 15:52 41.34766 68.81040 17650 ft 416 kts 153°
2026-04-15 15:52 41.32395 68.83116 16887 ft 412 kts 153°
2026-04-15 15:52 41.30021 68.85238 16110 ft 412 kts 149°
2026-04-15 15:52 41.27864 68.87781 15342 ft 417 kts 139°
2026-04-15 15:53 41.25976 68.90711 14579 ft 418 kts 136°
2026-04-15 15:53 41.24111 68.93663 13847 ft 416 kts 136°
2026-04-15 15:53 41.22249 68.96600 13074 ft 414 kts 136°
2026-04-15 15:53 41.20401 68.99506 12388 ft 409 kts 135°
2026-04-15 15:54 41.18565 69.02387 11656 ft 402 kts 136°
2026-04-15 15:54 41.16825 69.05131 11166 ft 379 kts 134°
2026-04-15 15:54 41.15398 69.07977 11024 ft 362 kts 122°
2026-04-15 15:54 41.14535 69.10977 10781 ft 337 kts 108°
2026-04-15 15:55 41.14174 69.13929 10399 ft 316 kts 98°
2026-04-15 15:55 41.14265 69.16750 10113 ft 311 kts 86°
2026-04-15 15:55 41.14588 69.19579 9886 ft 309 kts 85°
2026-04-15 15:55 41.14905 69.22376 9884 ft 305 kts 84°
2026-04-15 15:56 41.15217 69.25154 9885 ft 304 kts 84°
2026-04-15 15:56 41.15526 69.27933 9880 ft 305 kts 85°
2026-04-15 15:56 41.15828 69.30707 9867 ft 305 kts 84°
2026-04-15 15:56 41.16138 69.33488 9800 ft 305 kts 84°
2026-04-15 15:57 41.16454 69.36307 9214 ft 311 kts 84°
2026-04-15 15:57 41.16774 69.39104 8914 ft 305 kts 83°
2026-04-15 15:57 41.17087 69.41845 8319 ft 297 kts 83°
2026-04-15 15:57 41.17391 69.44541 7542 ft 293 kts 83°
2026-04-15 15:58 41.17684 69.47202 6829 ft 288 kts 83°
2026-04-15 15:58 41.18212 69.49733 6104 ft 285 kts 61°
2026-04-15 15:58 41.19489 69.51664 5392 ft 277 kts 32°
2026-04-15 15:58 41.21215 69.52545 5095 ft 255 kts
2026-04-15 15:59 41.22890 69.52479 5004 ft 232 kts 352°
2026-04-15 15:59 41.24492 69.52198 4858 ft 232 kts 349°
2026-04-15 15:59 41.26004 69.51403 4444 ft 235 kts 325°
2026-04-15 15:59 41.27138 69.49916 4268 ft 227 kts 303°
2026-04-15 16:00 41.27757 69.48009 4052 ft 226 kts 281°
2026-04-15 16:00 41.27791 69.45950 3814 ft 221 kts 263°
2026-04-15 16:00 41.27573 69.43971 3538 ft 209 kts 263°
2026-04-15 16:00 41.27374 69.42155 3241 ft 189 kts 263°
2026-04-15 16:01 41.27199 69.40537 3005 ft 171 kts 262°
2026-04-15 16:01 41.27037 69.39028 2798 ft 158 kts 263°
2026-04-15 16:01 41.26883 69.37623 2585 ft 151 kts 262°
2026-04-15 16:01 41.26734 69.36243 2391 ft 150 kts 263°
2026-04-15 16:02 41.26586 69.34883 2179 ft 148 kts 263°
2026-04-15 16:02 41.26441 69.33549 1993 ft 145 kts 263°
2026-04-15 16:02 41.26304 69.32242 1799 ft 141 kts 263°
2026-04-15 16:02 41.26165 69.30973 1584 ft 138 kts 263°
2026-04-15 16:03 41.26018 69.29712 1411 ft 137 kts 263°
2026-04-15 16:03 41.25908 69.28635 1383 ft 95 kts 261°
2026-04-15 16:03 41.25832 69.27994 1386 ft 45 kts 261°
2026-04-15 16:03 41.25805 69.27768 1387 ft 17 kts 261°
2026-04-15 16:04 41.25798 69.27707 1389 ft 0 kts 261°
2026-04-15 16:04 41.25794 69.27679 1385 ft 5 kts 261°
2026-04-15 16:04 41.25789 69.27611 1388 ft 10 kts 272°
2026-04-15 16:05 41.25832 69.27510 1383 ft 16 kts 316°
2026-04-15 16:05 41.25926 69.27399 1379 ft 20 kts 318°
2026-04-15 16:05 41.26024 69.27282 1378 ft 19 kts 319°
2026-04-15 16:05 41.26128 69.27160 1378 ft 20 kts 317°
2026-04-15 16:06 41.26234 69.27042 1378 ft 15 kts 320°
2026-04-15 16:06 41.26274 69.26950 1378 ft 12 kts 262°
2026-04-15 16:06 41.26267 69.26895 1377 ft 0 kts 262°